CW4541 Weather Reports


Display with metric or nautical units.
time (UTC)temp
F
wind
direction
speed
MPH
gust
MPH
rain 1hr
in
rain 24hr
in
rain mn
in
humidity
%
barometer
mb
20260904180606 73 11 2.0 7.0 0.00 0.00 0.00 33 1021.6
20260904180112 73 14 0.0 7.0 0.00 0.00 0.00 29 1021.7
20260904170605 71 15 1.0 6.0 0.00 0.00 0.00 38 1021.6
20260904170112 71 15 2.0 6.0 0.00 0.00 0.00 37 1021.6
20260904160606 69 20 1.0 8.0 0.00 0.00 0.00 40 1021.5
20260904160111 69 17 2.0 8.0 0.00 0.00 0.00 40 1021.5
20260904150605 66 183 1.0 6.0 0.00 0.00 0.00 44 1021.3
20260904150112 66 221 2.0 7.0 0.00 0.00 0.00 44 1021.3
20260904140606 55 219 0.0 3.0 0.00 0.00 0.00 60 1021.7
20260904140111 54 178 0.0 2.0 0.00 0.00 0.00 61 1021.6
20260904130606 50 198 0.0 0.0 0.00 0.00 0.00 64 1021.1
20260904120606 53 198 0.0 0.0 0.00 0.00 0.00 57 1020.4
20260904120111 53 197 0.0 0.0 0.00 0.00 0.00 57 1020.4
20260904110111 55 195 0.0 0.0 0.00 0.00 0.00 52 1019.9
20260904100605 52 218 0.0 1.0 0.00 0.00 0.00 54 1019.4
20260904100111 52 219 0.0 0.0 0.00 0.00 0.00 53 1019.3
20260904090605 55 222 0.0 1.0 0.00 0.00 0.00 47 1018.9
20260904090111 55 35 0.0 1.0 0.00 0.00 0.00 46 1018.9
20260904080605 53 39 0.0 0.0 0.00 0.00 0.00 48 1018.8
20260904080111 54 47 0.0 0.0 0.00 0.00 0.00 48 1018.9
20260904070605 54 41 0.0 2.0 0.00 0.00 0.00 49 1018.8
20260904060605 55 36 0.0 0.0 0.00 0.00 0.00 45 1018.7
20260904060113 55 40 0.0 0.0 0.00 0.00 0.00 45 1018.7
20260904050607 59 24 0.0 0.0 0.00 0.00 0.00 37 1018.7
20260904040112 60 22 0.0 1.0 0.00 0.00 0.00 33 1019.0
20260904030607 61 27 0.0 0.0 0.00 0.00 0.00 31 1018.9
20260904030112 61 27 0.0 0.0 0.00 0.00 0.00 31 1018.9
20260904020606 67 17 0.0 0.0 0.00 0.00 0.00 22 1018.5
20260904020114 67 17 0.0 0.0 0.00 0.00 0.00 21 1018.5
20260904010113 74 13 1.0 8.0 0.00 0.00 0.00 14 1018.8
20260904000607 77 183 1.0 9.0 0.00 0.00 0.00 13 1018.9
20260904000113 77 198 1.0 8.0 0.00 0.00 0.00 13 1018.9
20260903230606 77 191 3.0 9.0 0.00 0.00 0.00 14 1019.2
20260903230113 77 208 2.0 9.0 0.00 0.00 0.00 14 1019.1
20260903210606 77 22 2.0 10.0 0.00 0.00 0.00 17 1020.1
20260903210112 77 24 1.0 6.0 0.00 0.00 0.00 18 1020.1
20260903200607 76 18 1.0 10.0 0.00 0.00 0.00 18 1020.6
20260903200113 76 17 3.0 10.0 0.00 0.00 0.00 18 1020.7
20260903190113 74 14 2.0 9.0 0.00 0.00 0.00 20 1021.2